Weather History for Dayton Wright, OH

Change the Weather History Date:

Wednesday, February 27, 2013

  Actual Average (KFFO) Record (KFFO)
Temperature  
Mean Temperature 36 °F -  
Max Temperature 41 °F 42 °F 64 °F (1998)
Min Temperature 30 °F 25 °F 8 °F (2014)
Degree Days  
Heating Degree Days 30    
Moisture  
Dew Point 33 °F    
Average Humidity 93    
Maximum Humidity 100    
Minimum Humidity 85    
Precipitation  
Precipitation 0.05 in - - ()
Sea Level Pressure  
Sea Level Pressure 29.63 in    
Wind  
Wind Speed 13 mph (SW)    
Max Wind Speed 21 mph    
Max Gust Speed 33 mph    
Visibility 7 miles    
Events Rain , Snow    
Averages and records for this station are not official NWS values.
T = Trace of Precipitation, MM = Missing Value Source: NWS Daily Summary

Daily Weather History Graph

Daily Weather History Graph

Search for Another Location

Airport:

Trip Planner

Search our weather history database for the weather conditions in past years. The results will help you decide how hot, cold, wet, or windy it might be!

Date:

Astronomy

Feb. 27, 2013 Rise Set
Actual Time 7:12 AM EST 6:27 PM EST
Civil Twilight 6:45 AM EST 6:54 PM EST
Nautical Twilight 6:14 AM EST 7:25 PM EST
Astronomical Twilight 5:43 AM EST 7:56 PM EST
Moon 8:46 PM EST (2/27) 7:47 AM EST (2/27)
Length of Visible Light 12h 08m
Length of Day
11h 14m
Waning Gibbous, 96% of the Moon is Illuminated
Feb 27
Waning Gibbous
Mar 4
Last Quarter
Mar 11
New
Mar 19
First Quarter
Mar 27
Full

Hourly Weather History & Observations

Time (EST) Temp. Windchill Dew Point Humidity Pressure Visibility Wind Dir Wind Speed Gust Speed Precip Events Conditions
12:17 AM 41.0 °F 34.7 °F 39.2 °F 93% 29.49 in 6.0 mi SW 10.4 mph - 0.01 in Rain Light Rain
12:35 AM 41.0 °F 34.7 °F 39.2 °F 93% 29.49 in 9.0 mi SW 10.4 mph 18.4 mph 0.02 in Rain Light Rain
12:53 AM 39.9 °F 32.5 °F 39.9 °F 100% 29.51 in 9.0 mi SW 12.7 mph - 0.03 in Rain Light Rain
1:20 AM 39.2 °F 32.0 °F 39.2 °F 100% 29.50 in 8.0 mi SW 11.5 mph - 0.00 in Rain Light Rain
1:33 AM 39.2 °F 31.6 °F 39.2 °F 100% 29.51 in 10.0 mi SSW 12.7 mph 19.6 mph 0.00 in   Overcast
1:53 AM 39.0 °F 30.6 °F 39.0 °F 100% 29.53 in 10.0 mi SW 15.0 mph 21.9 mph 0.01 in Rain Light Rain
2:53 AM 39.0 °F 31.0 °F 37.0 °F 93% 29.54 in 10.0 mi SW 13.8 mph 20.7 mph 0.00 in   Overcast
3:53 AM 37.9 °F 31.5 °F 36.0 °F 93% 29.54 in 10.0 mi SW 9.2 mph 20.7 mph N/A   Overcast
5:00 AM 37.4 °F 29.8 °F 35.6 °F 93% 29.55 in 10.0 mi SSW 11.5 mph 18.4 mph N/A   Overcast
5:11 AM 37.4 °F 30.3 °F 35.6 °F 93% 29.55 in 10.0 mi SW 10.4 mph - 0.00 in   Overcast
5:53 AM 37.0 °F 29.3 °F 36.0 °F 96% 29.57 in 10.0 mi SW 11.5 mph 18.4 mph 0.00 in   Overcast
6:53 AM 37.9 °F 29.6 °F 36.0 °F 93% 29.59 in 10.0 mi SW 13.8 mph 21.9 mph N/A   Overcast
7:17 AM 37.4 °F 30.3 °F 35.6 °F 93% 29.58 in 10.0 mi SSW 10.4 mph 24.2 mph N/A   Overcast
7:50 AM 37.4 °F 29.8 °F 35.6 °F 93% 29.59 in 10.0 mi SW 11.5 mph - N/A   Overcast
7:53 AM 37.0 °F 29.3 °F 36.0 °F 96% 29.61 in 10.0 mi SW 11.5 mph 19.6 mph N/A   Overcast
8:01 AM 37.4 °F 29.8 °F 35.6 °F 93% 29.60 in 10.0 mi SW 11.5 mph 18.4 mph N/A   Overcast
8:12 AM 37.4 °F 29.3 °F 35.6 °F 93% 29.61 in 10.0 mi SW 12.7 mph 19.6 mph N/A   Overcast
8:37 AM 37.4 °F 28.2 °F 33.8 °F 87% 29.62 in 10.0 mi SW 16.1 mph 24.2 mph N/A   Overcast
8:53 AM 37.0 °F 28.1 °F 35.1 °F 93% 29.64 in 10.0 mi SW 15.0 mph 23.0 mph N/A   Overcast
9:53 AM 37.0 °F 27.4 °F 34.0 °F 89% 29.64 in 10.0 mi SW 17.3 mph 25.3 mph N/A   Overcast
10:05 AM 37.4 °F 29.3 °F 33.8 °F 87% 29.63 in 10.0 mi WSW 12.7 mph - N/A   Overcast
10:15 AM 35.6 °F 26.2 °F 33.8 °F 93% 29.64 in 6.0 mi WSW 15.0 mph 21.9 mph N/A   Overcast
10:32 AM 35.6 °F 25.9 °F 33.8 °F 93% 29.64 in 10.0 mi WSW 16.1 mph 25.3 mph 0.00 in   Overcast
10:53 AM 36.0 °F 26.0 °F 33.1 °F 89% 29.66 in 7.0 mi SW 17.3 mph 25.3 mph 0.00 in   Overcast
11:11 AM 35.6 °F 26.2 °F 32.0 °F 87% 29.64 in 10.0 mi WSW 15.0 mph - 0.00 in   Overcast
11:39 AM 35.6 °F 26.6 °F 33.8 °F 93% 29.64 in 4.0 mi SW 13.8 mph 20.7 mph 0.00 in Snow Light Snow
11:49 AM 35.6 °F 27.5 °F 33.8 °F 93% 29.64 in 5.0 mi SW 11.5 mph 23.0 mph 0.00 in Snow Light Snow
11:53 AM 35.1 °F 25.9 °F 34.0 °F 96% 29.66 in 5.0 mi SW 13.8 mph 21.9 mph 0.01 in Snow Light Snow
12:07 PM 35.6 °F 26.6 °F 33.8 °F 93% 29.64 in 6.0 mi SW 13.8 mph 24.2 mph 0.00 in Snow Light Snow
12:53 PM 35.1 °F 27.9 °F 33.1 °F 92% 29.64 in 9.0 mi SW 9.2 mph - 0.00 in   Overcast
1:26 PM 33.8 °F 25.3 °F 33.8 °F 100% 29.62 in 10.0 mi SW 11.5 mph - 0.00 in   Overcast
1:38 PM 35.6 °F 25.2 °F 33.8 °F 93% 29.63 in 10.0 mi WSW 18.4 mph - 0.00 in   Overcast
1:53 PM 35.1 °F 25.5 °F 32.0 °F 89% 29.65 in 8.0 mi SW 15.0 mph 33.4 mph 0.00 in Snow Light Snow
2:06 PM 33.8 °F 22.2 °F 30.2 °F 87% 29.63 in 10.0 mi WSW 20.7 mph 27.6 mph N/A   Overcast
2:26 PM 33.8 °F 23.5 °F 30.2 °F 87% 29.63 in 10.0 mi WSW 16.1 mph 23.0 mph N/A   Overcast
2:42 PM 33.8 °F 24.3 °F 30.2 °F 87% 29.63 in 8.0 mi SW 13.8 mph 21.9 mph N/A   Overcast
2:53 PM 34.0 °F 25.0 °F 30.9 °F 89% 29.65 in 10.0 mi SW 12.7 mph 23.0 mph N/A   Overcast
3:53 PM 34.0 °F 23.8 °F 30.0 °F 85% 29.67 in 8.0 mi WSW 16.1 mph 27.6 mph 0.00 in   Overcast
4:42 PM 33.8 °F 23.5 °F 30.2 °F 87% 29.66 in 2.0 mi WSW 16.1 mph 25.3 mph 0.00 in Snow Light Snow
4:50 PM 33.8 °F 24.3 °F 30.2 °F 87% 29.66 in 1.8 mi SW 13.8 mph 24.2 mph 0.00 in Snow Light Snow
4:53 PM 33.1 °F 23.4 °F 30.9 °F 92% 29.68 in 2.0 mi SW 13.8 mph 24.2 mph 0.00 in Snow Light Snow
5:06 PM 33.8 °F 24.8 °F 30.2 °F 87% 29.66 in 1.5 mi SW 12.7 mph 20.7 mph 0.00 in Snow Light Snow
5:19 PM 32.0 °F 22.1 °F 30.2 °F 93% 29.66 in 1.5 mi SW 13.8 mph 20.7 mph 0.00 in Snow Light Snow
5:26 PM 32.0 °F 23.6 °F 32.0 °F 100% 29.67 in 1.8 mi SW 10.4 mph - 0.00 in Snow Light Snow
5:37 PM 32.0 °F 22.1 °F 30.2 °F 93% 29.67 in 2.5 mi SW 13.8 mph 20.7 mph 0.00 in Snow Light Snow
5:46 PM 32.0 °F 22.1 °F 30.2 °F 93% 29.67 in 4.0 mi SW 13.8 mph 21.9 mph 0.00 in Snow Light Snow
5:53 PM 32.0 °F 22.5 °F 30.9 °F 96% 29.70 in 4.0 mi SW 12.7 mph - 0.00 in Snow Light Snow
6:09 PM 32.0 °F 24.2 °F 30.2 °F 93% 29.68 in 3.0 mi SW 9.2 mph - 0.00 in Snow Light Snow
6:22 PM 32.0 °F 22.5 °F 30.2 °F 93% 29.68 in 3.0 mi SW 12.7 mph 18.4 mph 0.00 in Snow Light Snow
6:53 PM 32.0 °F 22.5 °F 30.0 °F 92% 29.70 in 6.0 mi SW 12.7 mph - 0.00 in Snow Light Snow
7:53 PM 32.0 °F 23.6 °F 30.9 °F 96% 29.71 in 4.0 mi SSW 10.4 mph - 0.00 in Snow Light Snow
8:08 PM 32.0 °F 24.2 °F 30.2 °F 93% 29.68 in 3.0 mi SW 9.2 mph - 0.00 in Snow Light Snow
9:53 PM 32.0 °F 21.6 °F 30.9 °F 96% 29.70 in 6.0 mi SW 15.0 mph 19.6 mph 0.00 in   Overcast
10:02 PM 32.0 °F 21.6 °F 30.2 °F 93% 29.68 in 7.0 mi SW 15.0 mph 23.0 mph N/A   Overcast
10:53 PM 30.9 °F 20.7 °F 30.0 °F 96% 29.70 in 8.0 mi WSW 13.8 mph - N/A   Overcast
11:00 PM 30.2 °F 20.8 °F 30.2 °F 100% 29.68 in 9.0 mi WSW 11.5 mph - N/A   Overcast
11:53 PM 30.9 °F 20.7 °F 28.9 °F 92% 29.70 in 10.0 mi WSW 13.8 mph - N/A   Overcast